Year,Month,Day,Hour,Minute,Value (Times are PST for temperature in C)
2021,06,24,08,38,16.40
2021,06,24,08,39,16.50
2021,06,24,08,40,16.60
2021,06,24,08,41,16.60
2021,06,24,08,42,16.70
2021,06,24,08,43,16.70
2021,06,24,08,44,16.70
2021,06,24,08,45,16.70
2021,06,24,08,46,16.80
2021,06,24,08,47,16.80
2021,06,24,08,48,16.90
2021,06,24,08,49,16.90
2021,06,24,08,50,17.00
2021,06,24,08,51,17.00
2021,06,24,08,52,16.90
2021,06,24,08,53,16.90
2021,06,24,08,54,16.90
2021,06,24,08,55,16.90
2021,06,24,08,56,16.90
2021,06,24,08,57,16.90
2021,06,24,08,58,16.90
2021,06,24,08,59,16.90
2021,06,24,09,00,16.90
2021,06,24,09,01,17.00
2021,06,24,09,02,17.00
2021,06,24,09,03,17.10
2021,06,24,09,04,17.20
2021,06,24,09,05,17.30
2021,06,24,09,06,17.50
2021,06,24,09,07,17.60
2021,06,24,09,08,17.70
2021,06,24,09,09,17.80
2021,06,24,09,10,17.80
2021,06,24,09,11,17.90
2021,06,24,09,12,17.90
2021,06,24,09,13,18.00
2021,06,24,09,14,18.10
2021,06,24,09,15,18.10
2021,06,24,09,16,18.20
2021,06,24,09,17,18.20
2021,06,24,09,18,18.30
2021,06,24,09,19,18.30
2021,06,24,09,20,18.40
2021,06,24,09,21,18.50
2021,06,24,09,22,18.60
2021,06,24,09,23,18.70
2021,06,24,09,24,18.80
2021,06,24,09,25,18.90
2021,06,24,09,26,18.90
2021,06,24,09,27,19.10
2021,06,24,09,28,19.10
2021,06,24,09,29,19.10
2021,06,24,09,30,19.20
2021,06,24,09,31,19.30
2021,06,24,09,32,19.30
2021,06,24,09,33,19.40
2021,06,24,09,34,19.40
2021,06,24,09,35,19.40
2021,06,24,09,36,19.40
2021,06,24,09,37,19.60
2021,06,24,09,38,19.70
2021,06,24,09,39,19.70
2021,06,24,09,40,19.80
2021,06,24,09,41,19.90
2021,06,24,09,42,20.00
2021,06,24,09,43,20.10
2021,06,24,09,44,20.10
2021,06,24,09,45,20.20
2021,06,24,09,46,20.30
2021,06,24,09,47,20.30
2021,06,24,09,48,20.40
2021,06,24,09,49,20.50
2021,06,24,09,50,20.50
2021,06,24,09,51,20.50
2021,06,24,09,52,20.40
2021,06,24,09,53,20.30
2021,06,24,09,54,20.20
2021,06,24,09,55,20.20
2021,06,24,09,56,20.20
2021,06,24,09,57,20.20
2021,06,24,09,58,20.10
2021,06,24,09,59,20.00
2021,06,24,10,00,19.80
2021,06,24,10,01,19.60
2021,06,24,10,02,19.50
2021,06,24,10,03,19.40
2021,06,24,10,04,19.40
2021,06,24,10,05,19.30
2021,06,24,10,06,19.30
2021,06,24,10,07,19.20
2021,06,24,10,08,19.20
2021,06,24,10,09,19.10
2021,06,24,10,10,19.00
2021,06,24,10,11,18.90
2021,06,24,10,12,18.90
2021,06,24,10,13,18.90
2021,06,24,10,14,18.80
2021,06,24,10,15,18.80
2021,06,24,10,16,18.90
2021,06,24,10,17,18.80
2021,06,24,10,18,18.80
2021,06,24,10,19,18.80
2021,06,24,10,20,18.70
2021,06,24,10,21,18.60
2021,06,24,10,22,18.50
2021,06,24,10,23,18.50
2021,06,24,10,24,18.40
2021,06,24,10,25,18.40
2021,06,24,10,26,18.40
2021,06,24,10,27,18.20
2021,06,24,10,28,18.10
2021,06,24,10,29,17.90
2021,06,24,10,30,17.80
2021,06,24,10,31,17.70
2021,06,24,10,32,17.60
2021,06,24,10,33,17.50
2021,06,24,10,34,17.50
2021,06,24,10,35,17.50
2021,06,24,10,36,17.50
2021,06,24,10,37,17.50
2021,06,24,10,38,17.60
2021,06,24,10,39,17.50
2021,06,24,10,40,17.50
2021,06,24,10,41,17.50
2021,06,24,10,42,17.50
2021,06,24,10,43,17.50
2021,06,24,10,44,17.60
2021,06,24,10,45,17.70
2021,06,24,10,46,17.70
2021,06,24,10,47,17.70
2021,06,24,10,48,17.70
2021,06,24,10,49,17.80
2021,06,24,10,50,17.80
2021,06,24,10,51,17.90
2021,06,24,10,52,17.90
2021,06,24,10,53,17.90
2021,06,24,10,54,18.10
2021,06,24,10,55,18.10
2021,06,24,10,56,18.00
2021,06,24,10,57,17.90
2021,06,24,10,58,17.90
2021,06,24,10,59,17.90
2021,06,24,11,00,17.80
2021,06,24,11,01,17.80
2021,06,24,11,02,17.80
2021,06,24,11,03,17.80
2021,06,24,11,04,17.80
2021,06,24,11,05,17.90
2021,06,24,11,06,17.90
2021,06,24,11,07,17.90
2021,06,24,11,08,18.00
2021,06,24,11,09,18.10
2021,06,24,11,10,18.20
2021,06,24,11,11,18.20
2021,06,24,11,12,18.20
2021,06,24,11,13,18.30
2021,06,24,11,14,18.30
2021,06,24,11,15,18.40
2021,06,24,11,16,18.30
2021,06,24,11,17,18.30
2021,06,24,11,18,18.40
2021,06,24,11,19,18.40
2021,06,24,11,20,18.50
2021,06,24,11,21,18.70
2021,06,24,11,22,18.70
2021,06,24,11,23,18.70
2021,06,24,11,24,18.70
2021,06,24,11,25,18.70
2021,06,24,11,26,18.70
2021,06,24,11,27,18.80
2021,06,24,11,28,18.90
2021,06,24,11,29,18.90
2021,06,24,11,30,18.90
2021,06,24,11,31,18.80
2021,06,24,11,32,18.80
2021,06,24,11,33,18.80
2021,06,24,11,34,18.80
2021,06,24,11,35,18.80
2021,06,24,11,36,18.80
2021,06,24,11,37,18.80
2021,06,24,11,38,18.90
2021,06,24,11,39,18.80
2021,06,24,11,40,18.80
2021,06,24,11,41,18.90
2021,06,24,11,42,19.10
2021,06,24,11,43,19.10
2021,06,24,11,44,19.20
2021,06,24,11,45,19.30
2021,06,24,11,46,19.40
2021,06,24,11,47,19.30
2021,06,24,11,48,19.30
2021,06,24,11,49,19.20
2021,06,24,11,50,19.10
2021,06,24,11,51,19.10
2021,06,24,11,52,19.10
2021,06,24,11,53,19.10
2021,06,24,11,54,19.10
2021,06,24,11,55,19.10
2021,06,24,11,56,19.10
2021,06,24,11,57,19.10
2021,06,24,11,58,19.10
2021,06,24,11,59,19.10
2021,06,24,12,00,19.20
2021,06,24,12,01,19.20
2021,06,24,12,02,19.10
2021,06,24,12,03,19.10
2021,06,24,12,04,19.20
2021,06,24,12,05,19.20
2021,06,24,12,06,19.30
2021,06,24,12,07,19.30
2021,06,24,12,08,19.30
2021,06,24,12,09,19.40
2021,06,24,12,10,19.40
2021,06,24,12,11,19.50
2021,06,24,12,12,19.70
2021,06,24,12,13,19.80
2021,06,24,12,14,19.90
2021,06,24,12,15,19.90
2021,06,24,12,16,20.00
2021,06,24,12,17,20.10
2021,06,24,12,18,20.20
2021,06,24,12,19,20.20
2021,06,24,12,20,20.30
2021,06,24,12,21,20.30
2021,06,24,12,22,20.40
2021,06,24,12,23,20.40
2021,06,24,12,24,20.40
2021,06,24,12,25,20.40
2021,06,24,12,26,20.20
2021,06,24,12,27,20.10
2021,06,24,12,28,19.90
2021,06,24,12,29,19.90
2021,06,24,12,30,19.90
2021,06,24,12,31,20.00
2021,06,24,12,32,20.10
2021,06,24,12,33,20.20
2021,06,24,12,34,20.10
2021,06,24,12,35,20.00
2021,06,24,12,36,20.00
2021,06,24,12,37,20.10
2021,06,24,12,38,20.10
2021,06,24,12,39,20.20
2021,06,24,12,40,20.20
2021,06,24,12,41,20.30
2021,06,24,12,42,20.40
2021,06,24,12,43,20.50
2021,06,24,12,44,20.60
2021,06,24,12,45,20.80
2021,06,24,12,46,20.80
2021,06,24,12,47,20.90
2021,06,24,12,48,20.80
2021,06,24,12,49,20.70
2021,06,24,12,50,20.70
2021,06,24,12,51,20.70
2021,06,24,12,52,20.70
2021,06,24,12,53,20.60
2021,06,24,12,54,20.50
2021,06,24,12,55,20.50
2021,06,24,12,56,20.40
2021,06,24,12,57,20.30
2021,06,24,12,58,20.40
2021,06,24,12,59,20.40
2021,06,24,13,00,20.50
2021,06,24,13,01,20.60
2021,06,24,13,02,20.70
2021,06,24,13,03,20.80
2021,06,24,13,04,20.90
2021,06,24,13,05,20.90
2021,06,24,13,06,20.90
2021,06,24,13,07,21.00
2021,06,24,13,08,21.10
2021,06,24,13,09,21.20
2021,06,24,13,10,21.20
2021,06,24,13,11,21.30
2021,06,24,13,12,21.30
2021,06,24,13,13,21.40
2021,06,24,13,14,21.50
2021,06,24,13,15,21.50
2021,06,24,13,16,21.40
2021,06,24,13,17,21.30
2021,06,24,13,18,21.30
2021,06,24,13,19,21.30
2021,06,24,13,20,21.30
2021,06,24,13,21,21.30
2021,06,24,13,22,21.30
2021,06,24,13,23,21.40
2021,06,24,13,24,21.40
2021,06,24,13,25,21.50
2021,06,24,13,26,21.60
2021,06,24,13,27,21.70
2021,06,24,13,28,21.70
2021,06,24,13,29,21.60
2021,06,24,13,30,21.60
2021,06,24,13,31,21.70
2021,06,24,13,32,21.80
2021,06,24,13,33,21.80
2021,06,24,13,34,21.80
2021,06,24,13,35,21.80
2021,06,24,13,36,21.90
2021,06,24,13,37,21.90
2021,06,24,13,38,21.90
2021,06,24,13,39,22.00
2021,06,24,13,40,22.20
2021,06,24,13,41,22.30
2021,06,24,13,42,22.30
2021,06,24,13,43,22.30
2021,06,24,13,44,22.30
2021,06,24,13,45,22.30
2021,06,24,13,46,22.30
2021,06,24,13,47,22.30
2021,06,24,13,48,22.30
2021,06,24,13,49,22.30
2021,06,24,13,50,22.30
2021,06,24,13,51,22.30
2021,06,24,13,52,22.40
2021,06,24,13,53,22.50
2021,06,24,13,54,22.50
2021,06,24,13,55,22.50
2021,06,24,13,56,22.40
2021,06,24,13,57,22.30
2021,06,24,13,58,22.30
2021,06,24,13,59,22.20
2021,06,24,14,00,22.10
2021,06,24,14,01,22.00
2021,06,24,14,02,22.00
2021,06,24,14,03,22.00
2021,06,24,14,04,22.00
2021,06,24,14,05,22.10
2021,06,24,14,06,22.20
2021,06,24,14,07,22.30
2021,06,24,14,08,22.20
2021,06,24,14,09,22.10
2021,06,24,14,10,22.00
2021,06,24,14,11,22.00
2021,06,24,14,12,22.10
2021,06,24,14,13,22.20
2021,06,24,14,14,22.30
2021,06,24,14,15,22.20
2021,06,24,14,16,22.10
2021,06,24,14,17,21.90
2021,06,24,14,18,21.60
2021,06,24,14,19,21.50
2021,06,24,14,20,21.40
2021,06,24,14,21,21.30
2021,06,24,14,22,21.10
2021,06,24,14,23,21.00
2021,06,24,14,24,21.00
2021,06,24,14,25,21.00
2021,06,24,14,26,21.00
2021,06,24,14,27,20.90
2021,06,24,14,28,20.90
2021,06,24,14,29,20.90
2021,06,24,14,30,20.90
2021,06,24,14,31,20.90
2021,06,24,14,32,20.90
2021,06,24,14,33,20.90
2021,06,24,14,34,20.90
2021,06,24,14,35,20.90
2021,06,24,14,36,21.00
2021,06,24,14,37,21.00
2021,06,24,14,38,21.00
2021,06,24,14,39,21.00
2021,06,24,14,40,21.00
2021,06,24,14,41,21.00
2021,06,24,14,42,20.90
2021,06,24,14,43,20.90
2021,06,24,14,44,20.90
2021,06,24,14,45,20.90
2021,06,24,14,46,20.90
2021,06,24,14,47,20.90
2021,06,24,14,48,20.90
2021,06,24,14,49,21.00
2021,06,24,14,50,21.00
2021,06,24,14,51,21.10
2021,06,24,14,52,21.00
2021,06,24,14,53,21.00
2021,06,24,14,54,21.10
2021,06,24,14,55,21.10
2021,06,24,14,56,21.20
2021,06,24,14,57,21.30
2021,06,24,14,58,21.40
2021,06,24,14,59,21.40
2021,06,24,15,00,21.40
2021,06,24,15,01,21.50
2021,06,24,15,02,21.60
2021,06,24,15,03,21.60
2021,06,24,15,04,21.70
2021,06,24,15,05,21.90
2021,06,24,15,06,22.00
2021,06,24,15,07,22.20
2021,06,24,15,08,22.20
2021,06,24,15,09,22.30
2021,06,24,15,10,22.40
2021,06,24,15,11,22.50
2021,06,24,15,12,22.50
2021,06,24,15,13,22.50
2021,06,24,15,14,22.50
2021,06,24,15,15,22.50
2021,06,24,15,16,22.60
2021,06,24,15,17,22.60
2021,06,24,15,18,22.60
2021,06,24,15,19,22.60
2021,06,24,15,20,22.70
2021,06,24,15,21,22.80
2021,06,24,15,22,22.90
2021,06,24,15,23,22.80
2021,06,24,15,24,22.70
2021,06,24,15,25,22.60
2021,06,24,15,26,22.60
2021,06,24,15,27,22.70
2021,06,24,15,28,22.70
2021,06,24,15,29,22.80
2021,06,24,15,30,22.80
2021,06,24,15,31,22.90
2021,06,24,15,32,22.90
2021,06,24,15,33,22.90
2021,06,24,15,34,22.90
2021,06,24,15,35,22.90
2021,06,24,15,36,22.90
2021,06,24,15,37,23.10
2021,06,24,15,38,23.10
2021,06,24,15,39,23.20
2021,06,24,15,40,23.30
2021,06,24,15,41,23.30
2021,06,24,15,42,23.30
2021,06,24,15,43,23.30
2021,06,24,15,44,23.30
2021,06,24,15,45,23.30
2021,06,24,15,46,23.30
2021,06,24,15,47,23.20
2021,06,24,15,48,23.20
2021,06,24,15,49,23.20
2021,06,24,15,50,23.20
2021,06,24,15,51,23.30
2021,06,24,15,52,23.30
2021,06,24,15,53,23.30
2021,06,24,15,54,23.40
2021,06,24,15,55,23.40
2021,06,24,15,56,23.40
2021,06,24,15,57,23.40
2021,06,24,15,58,23.50
2021,06,24,15,59,23.60
2021,06,24,16,00,23.60
2021,06,24,16,01,23.70
2021,06,24,16,02,23.70
2021,06,24,16,03,23.70
2021,06,24,16,04,23.70
2021,06,24,16,05,23.80
2021,06,24,16,06,23.90
2021,06,24,16,07,24.10
2021,06,24,16,08,24.10
2021,06,24,16,09,24.10
2021,06,24,16,10,24.10
2021,06,24,16,11,24.10
2021,06,24,16,12,24.10
2021,06,24,16,13,24.10
2021,06,24,16,14,23.90
2021,06,24,16,15,23.90
2021,06,24,16,16,23.80
2021,06,24,16,17,23.70
2021,06,24,16,18,23.70
2021,06,24,16,19,23.60
2021,06,24,16,20,23.60
2021,06,24,16,21,23.60
2021,06,24,16,22,23.60
2021,06,24,16,23,23.40
2021,06,24,16,24,23.30
2021,06,24,16,25,23.30
2021,06,24,16,26,23.30
2021,06,24,16,27,23.30
2021,06,24,16,28,23.30
2021,06,24,16,29,23.30
2021,06,24,16,30,23.30
2021,06,24,16,31,23.30
2021,06,24,16,32,23.30
2021,06,24,16,33,23.40
2021,06,24,16,34,23.50
2021,06,24,16,35,23.60
2021,06,24,16,36,23.70
2021,06,24,16,37,23.70
2021,06,24,16,38,23.70
2021,06,24,16,39,23.70
2021,06,24,16,40,23.70
2021,06,24,16,41,23.70
2021,06,24,16,42,23.50
2021,06,24,16,43,23.30
2021,06,24,16,44,23.30
2021,06,24,16,45,23.30
2021,06,24,16,46,23.20
2021,06,24,16,47,23.10
2021,06,24,16,48,23.10
2021,06,24,16,49,23.10
2021,06,24,16,50,23.10
2021,06,24,16,51,23.10
2021,06,24,16,52,22.90
2021,06,24,16,53,22.90
2021,06,24,16,54,22.80
2021,06,24,16,55,22.80
2021,06,24,16,56,22.80
2021,06,24,16,57,22.80
2021,06,24,16,58,22.70
2021,06,24,16,59,22.60
2021,06,24,17,00,22.50
2021,06,24,17,01,22.40
2021,06,24,17,02,22.40
2021,06,24,17,03,22.40
2021,06,24,17,04,22.40
2021,06,24,17,05,22.50
2021,06,24,17,06,22.50
2021,06,24,17,07,22.60
2021,06,24,17,08,22.60
2021,06,24,17,09,22.60
2021,06,24,17,10,22.60
2021,06,24,17,11,22.60
2021,06,24,17,12,22.60
2021,06,24,17,13,22.60
2021,06,24,17,14,22.60
2021,06,24,17,15,22.60
2021,06,24,17,16,22.50
2021,06,24,17,17,22.50
2021,06,24,17,18,22.40
2021,06,24,17,19,22.30
2021,06,24,17,20,22.30
2021,06,24,17,21,22.20
2021,06,24,17,22,22.10
2021,06,24,17,23,22.10
2021,06,24,17,24,22.00
2021,06,24,17,25,22.00
2021,06,24,17,26,22.00
2021,06,24,17,27,22.00
2021,06,24,17,28,22.00
2021,06,24,17,29,21.90
2021,06,24,17,30,21.90
2021,06,24,17,31,21.80
2021,06,24,17,32,21.70
2021,06,24,17,33,21.60
2021,06,24,17,34,21.60
2021,06,24,17,35,21.70
2021,06,24,17,36,21.80
2021,06,24,17,37,22.00
2021,06,24,17,38,22.10
2021,06,24,17,39,22.10
2021,06,24,17,40,22.10
2021,06,24,17,41,22.10
2021,06,24,17,42,22.10
2021,06,24,17,43,22.10
2021,06,24,17,44,22.10
2021,06,24,17,45,22.10
2021,06,24,17,46,22.10
2021,06,24,17,47,22.10
2021,06,24,17,48,22.10
2021,06,24,17,49,22.10
2021,06,24,17,50,22.10
2021,06,24,17,51,22.10
2021,06,24,17,52,22.10
